Fargo, ND

10:56 AM CST on February 19, 2017 (GMT -0600)
Hector International

Weather History for KFAR - November, 2011

Change the Weather History Date:

Sunday, November 13, 2011

  Actual Average Record
Temperature  
Mean Temperature 39 °F 30 °F  
Max Temperature 45 °F 39 °F 67 °F (2016)
Min Temperature 32 °F 22 °F -11 °F (1919)
Degree Days  
Heating Degree Days 26 35  
Month to date heating degree days 313 403  
Since 1 July heating degree days 930 1279  
Cooling Degree Days 0 0  
Month to date cooling degree days 0 0  
Year to date cooling degree days 694 551  
Moisture  
Dew Point 26 °F    
Average Humidity 63    
Maximum Humidity 75    
Minimum Humidity 50    
Precipitation  
Precipitation 0.00 in 0.03 in 0.42 in (1906)
Month to date precipitation 0.07 0.48  
Year to date precipitation 23.40 21.26  
Snow  
Snow 0.00 in 0.30 in 3.60 in (1906)
Month to date snowfall 0.0 2.3  
Since 1 July snowfall 0.0 3.0  
Since 1 September snowfall 0.0 3.0  
Snow Depth 0.00 in    
Sea Level Pressure  
Sea Level Pressure 29.29 in    
Wind  
Wind Speed 10 mph (West)    
Max Wind Speed 20 mph    
Max Gust Speed 24 mph    
Visibility 10 miles    
Events      
T = Trace of Precipitation, MM = Missing Value Source: NWS Daily Summary

Daily Weather History Graph

Daily Weather History Graph

Search for Another Location

Airport or City:

Trip Planner

Search our weather history database for the weather conditions in past years. The results will help you decide how hot, cold, wet, or windy it might be!

Date:

Astronomy

Nov. 13, 2011 Rise Set
Actual Time 7:27 AM CST 4:55 PM CST
Civil Twilight 6:54 AM CST 5:28 PM CST
Nautical Twilight 6:17 AM CST 6:04 PM CST
Astronomical Twilight 5:41 AM CST 6:40 PM CST
Moon 6:58 PM CST (11/13) 10:07 AM CST (11/13)
Length of Visible Light 10h 33m
Length of Day
9h 28m
Waning Gibbous, 92% of the Moon is Illuminated
Nov 13
Waning Gibbous
Nov 18
Last Quarter
Nov 25
New
Dec 2
First Quarter
Dec 10
Full

Hourly Weather History & Observations

Time (CST) Temp. Windchill Dew Point Humidity Pressure Visibility Wind Dir Wind Speed Gust Speed Precip Events Conditions
12:53 AM 35.1 °F 28.6 °F 23.0 °F 61% 29.18 in 10.0 mi West 8.1 mph - N/A   Clear
1:53 AM 34.0 °F 26.6 °F 24.1 °F 67% 29.19 in 10.0 mi West 9.2 mph - N/A   Clear
2:53 AM 35.1 °F 25.9 °F 27.0 °F 72% 29.22 in 10.0 mi WNW 13.8 mph - N/A   Clear
3:16 AM 35.6 °F 27.5 °F 28.4 °F 75% 29.21 in 10.0 mi WNW 11.5 mph - N/A   Mostly Cloudy
3:53 AM 36.0 °F 27.1 °F 28.9 °F 76% 29.24 in 10.0 mi NW 13.8 mph 19.6 mph N/A   Overcast
4:36 AM 35.6 °F 27.1 °F 28.4 °F 75% 29.22 in 10.0 mi NW 12.7 mph - N/A   Overcast
4:53 AM 36.0 °F 28.5 °F 28.0 °F 73% 29.25 in 10.0 mi NW 10.4 mph - N/A   Overcast
5:53 AM 36.0 °F 29.0 °F 28.0 °F 73% 29.27 in 10.0 mi NW 9.2 mph - N/A   Overcast
6:53 AM 36.0 °F 27.5 °F 27.0 °F 70% 29.29 in 10.0 mi NW 12.7 mph - N/A   Overcast
7:53 AM 35.1 °F 25.5 °F 26.1 °F 70% 29.31 in 10.0 mi WNW 15.0 mph - N/A   Overcast
8:53 AM 35.1 °F 25.9 °F 26.1 °F 70% 29.32 in 10.0 mi WNW 13.8 mph - N/A   Overcast
9:53 AM 36.0 °F 29.0 °F 26.1 °F 67% 29.32 in 10.0 mi WNW 9.2 mph - N/A   Overcast
10:53 AM 37.0 °F 29.8 °F 26.1 °F 65% 29.31 in 9.0 mi WNW 10.4 mph - N/A   Overcast
11:53 AM 39.0 °F 31.8 °F 26.1 °F 60% 29.31 in 10.0 mi WNW 11.5 mph - N/A   Overcast
12:53 PM 39.9 °F 32.5 °F 27.0 °F 60% 29.32 in 10.0 mi West 12.7 mph - N/A   Overcast
1:21 PM 39.2 °F 32.5 °F 26.6 °F 61% 29.29 in 10.0 mi West 10.4 mph - N/A   Overcast
1:53 PM 43.0 °F 37.2 °F 27.0 °F 53% 29.30 in 10.0 mi WSW 10.4 mph - N/A   Scattered Clouds
2:53 PM 44.1 °F 41.5 °F 28.0 °F 53% 29.30 in 10.0 mi SW 4.6 mph - N/A   Clear
3:53 PM 45.0 °F 41.8 °F 28.9 °F 53% 29.30 in 10.0 mi SSW 5.8 mph - N/A   Clear
4:53 PM 42.1 °F 37.7 °F 28.0 °F 58% 29.30 in 10.0 mi SSE 6.9 mph - N/A   Clear
5:53 PM 39.9 °F 37.8 °F 27.0 °F 60% 29.32 in 10.0 mi ESE 3.5 mph - N/A   Clear
6:53 PM 36.0 °F 31.1 °F 27.0 °F 70% 29.32 in 10.0 mi SSE 5.8 mph - N/A   Clear
7:53 PM 36.0 °F 30.3 °F 25.0 °F 64% 29.32 in 10.0 mi South 6.9 mph - N/A   Clear
8:53 PM 32.0 °F 23.6 °F 23.0 °F 69% 29.32 in 10.0 mi SSW 10.4 mph - N/A   Clear
9:53 PM 36.0 °F 28.0 °F 24.1 °F 62% 29.33 in 10.0 mi SW 11.5 mph - N/A   Clear
10:53 PM 35.1 °F 27.4 °F 23.0 °F 61% 29.33 in 10.0 mi SSW 10.4 mph - N/A   Partly Cloudy
11:53 PM 39.0 °F 31.8 °F 24.1 °F 55% 29.33 in 10.0 mi SSW 11.5 mph - N/A   Overcast